CW6682 Weather Reports


Display with metric or nautical units.
time (UTC)temp
F
wind
direction
speed
MPH
gust
MPH
rain 1hr
in
rain 24hr
in
rain mn
in
humidity
%
barometer
mb
20260506210046 77 317 7.0 0.0 0.00 0.00 0.00 23 1011.8
20260506204543 77 345 5.0 0.0 0.00 0.00 0.00 22 1012.0
20260506203040 77 326 4.0 0.0 0.00 0.00 0.00 23 1012.2
20260506201541 76 233 5.0 0.0 0.00 0.00 0.00 24 1012.4
20260506200038 75 317 5.0 0.0 0.00 0.00 0.00 25 1012.6
20260506194538 76 306 4.0 0.0 0.00 0.00 0.00 26 1012.7
20260506193037 75 202 5.0 0.0 0.00 0.00 0.00 25 1012.8
20260506191539 75 192 4.0 0.0 0.00 0.00 0.00 25 1013.2
20260506190035 75 290 5.0 0.0 0.00 0.00 0.00 26 1013.2
20260506184545 74 265 1.0 0.0 0.00 0.00 0.00 26 1013.6
20260506183038 73 254 6.0 0.0 0.00 0.00 0.00 28 1013.7
20260506181536 74 302 2.0 0.0 0.00 0.00 0.00 29 1013.9
20260506180029 72 303 3.0 0.0 0.00 0.00 0.00 30 1013.9
20260506174524 71 302 5.0 0.0 0.00 0.00 0.00 31 1013.9
20260506173019 71 296 3.0 0.0 0.00 0.00 0.00 30 1013.8
20260506171514 71 299 2.0 0.0 0.00 0.00 0.00 32 1013.9
20260506170011 70 299 3.0 0.0 0.00 0.00 0.00 32 1013.7
20260506164509 69 298 2.0 0.0 0.00 0.00 0.00 32 1013.7
20260506163003 69 298 3.0 0.0 0.00 0.00 0.00 33 1013.7
20260506161600 68 299 2.0 0.0 0.00 0.00 0.00 34 1013.8
20260506160108 68 301 2.0 0.0 0.00 0.00 0.00 34 1013.7
20260506154602 68 302 1.0 0.0 0.00 0.00 0.00 34 1013.9
20260506153110 67 302 1.0 0.0 0.00 0.00 0.00 36 1013.9
20260506151548 67 290 1.0 0.0 0.00 0.00 0.00 36 1013.9
20260506150052 66 290 0.0 0.0 0.00 0.00 0.00 37 1013.9
20260506144539 63 254 1.0 0.0 0.00 0.00 0.00 39 1013.9
20260506143036 62 255 3.0 0.0 0.00 0.00 0.00 41 1013.8
20260506141534 62 255 3.0 0.0 0.00 0.00 0.00 42 1013.6
20260506140031 61 256 4.0 0.0 0.00 0.00 0.00 43 1013.3
20260506134531 60 259 0.0 0.0 0.00 0.00 0.00 44 1013.3
20260506133026 59 259 2.0 0.0 0.00 0.00 0.00 46 1013.0
20260506131532 58 259 1.0 0.0 0.00 0.00 0.00 51 1013.0
20260506130019 58 259 0.0 0.0 0.00 0.00 0.00 51 1012.8
20260506124517 58 265 0.0 0.0 0.00 0.00 0.00 48 1012.6
20260506123015 57 265 0.0 0.0 0.00 0.00 0.00 49 1012.3
20260506121514 58 265 0.0 0.0 0.00 0.00 0.00 48 1012.2
20260506120018 58 265 0.0 0.0 0.00 0.00 0.00 47 1012.1
20260506114520 59 265 0.0 0.0 0.00 0.00 0.00 47 1012.2
20260506113024 59 265 0.0 0.0 0.00 0.00 0.00 47 1012.1
20260506111513 59 265 2.0 0.0 0.00 0.00 0.00 49 1012.1
20260506110012 58 265 0.0 0.0 0.00 0.00 0.00 52 1012.0
20260506104509 58 265 0.0 0.0 0.00 0.00 0.00 50 1011.7
20260506103011 59 265 0.0 0.0 0.00 0.00 0.00 49 1011.7
20260506101508 59 265 0.0 0.0 0.00 0.00 0.00 49 1011.6
20260506100004 60 265 0.0 0.0 0.00 0.00 0.00 46 1011.4
20260506094601 60 265 0.0 0.0 0.00 0.00 0.00 44 1011.3
20260506093057 61 265 0.0 0.0 0.00 0.00 0.00 44 1011.0
20260506091601 62 265 0.0 0.0 0.00 0.00 0.00 40 1011.1
20260506090101 63 265 0.0 0.0 0.00 0.00 0.00 39 1011.0
20260506084605 63 265 1.0 0.0 0.00 0.00 0.00 39 1011.1
20260506083055 64 265 2.0 0.0 0.00 0.00 0.00 38 1011.0
20260506081557 64 265 2.0 0.0 0.00 0.00 0.00 38 1011.0
20260506080104 62 265 0.0 0.0 0.00 0.00 0.00 40 1011.2
20260506073053 61 265 0.0 0.0 0.00 0.00 0.00 42 1011.0
20260506071559 62 265 0.0 0.0 0.00 0.00 0.00 40 1010.9
20260506061544 65 265 0.0 0.0 0.00 0.00 0.00 36 1010.5
20260506044538 68 265 1.0 0.0 0.00 0.00 0.00 29 1009.9
20260506043037 69 265 3.0 0.0 0.00 0.00 0.00 29 1009.8
20260506041537 69 265 4.0 0.0 0.00 0.00 0.00 28 1009.6
20260506040036 70 265 5.0 0.0 0.00 0.00 0.00 27 1009.4
20260506034542 70 266 6.0 0.0 0.00 0.00 0.00 27 1009.3
20260506033034 70 261 5.0 0.0 0.00 0.00 0.00 27 1009.0
20260506031535 70 265 4.0 0.0 0.00 0.00 0.00 26 1008.7
20260506030040 71 259 5.0 0.0 0.00 0.00 0.00 26 1008.6
20260506024555 71 258 6.0 0.0 0.00 0.00 0.00 26 1008.3
20260506023033 71 255 6.0 0.0 0.00 0.00 0.00 26 1008.2
20260506021532 72 288 5.0 0.0 0.00 0.00 0.00 26 1007.9
20260506020031 72 268 6.0 0.0 0.00 0.00 0.00 26 1007.8
20260506014532 73 257 8.0 0.0 0.00 0.00 0.00 25 1007.6
20260506013040 73 283 7.0 0.0 0.00 0.00 0.00 25 1007.6
20260506011530 74 253 7.0 0.0 0.00 0.00 0.00 25 1007.4
20260506010031 74 304 8.0 0.0 0.00 0.00 0.00 25 1007.2
20260506004531 74 248 7.0 0.0 0.00 0.00 0.00 25 1007.3
20260506003034 74 304 7.0 0.0 0.00 0.00 0.00 26 1007.1
20260506001527 74 259 8.0 0.0 0.00 0.00 0.00 26 1007.0
20260506000027 74 294 8.0 0.0 0.00 0.00 0.00 26 1007.0
20260505234533 74 261 7.0 0.0 0.00 0.00 0.00 25 1007.1
20260505233025 73 253 9.0 0.0 0.00 0.00 0.00 27 1007.0
20260505231525 74 256 11.0 0.0 0.00 0.00 0.00 27 1007.1
20260505230038 73 267 8.0 0.0 0.00 0.00 0.00 28 1006.9
20260505224524 75 263 8.0 0.0 0.00 0.00 0.00 27 1007.0
20260505223025 75 287 8.0 0.0 0.00 0.00 0.00 28 1007.3
20260505221522 75 250 6.0 0.0 0.00 0.00 0.00 28 1007.3
20260505220021 75 238 8.0 0.0 0.00 0.00 0.00 28 1007.5
20260505214522 74 277 8.0 0.0 0.00 0.00 0.00 28 1007.5
20260505213018 75 252 7.0 0.0 0.00 0.00 0.00 28 1007.7